Home > Time Zones > World Clock > Weather > Russia > Perm > Past weeks

Flag for Russia Weather past 2 weeks in Perm, Russia

Now
55 °F

Sprinkles. Mostly cloudy.


Feels Like: 53 °F
Forecast: 42 / 61 °F
Wind: 8 mph from Northwest

Location: Perm'/Bolshoe Savino

Current Time: Jul 3, 2015 at 11:50:27 AM

Latest Report: Jul 3, 2015 at 11:00 AM


Visibility: N/A

Pressure: 29.80 "Hg

Humidity: 94%

Dew point: 54 °F

Location of PermLocation

Historic Weather in Perm — Graph

°F

Perm temperature yesterday

Maximum temperature yesterday: 64 °F (at 6:00 PM)
Minimum temperature yesterday: 55 °F (at 11:00 PM)
Average temperature yesterday: 59 °F

Past Weeks' High & Low Weather Summary

 TemperatureHumidityPressure
High93 °F (Jun 22, 1:30 PM)100% (Jun 21, 4:30 AM)30.09 "Hg (Jun 21, 4:30 AM)
Low48 °F (Jul 3, 4:00 AM)26% (Jun 22, 3:30 PM)29.65 "Hg (Jul 2, 5:00 AM)
Average70 °F75%29.88 "Hg
* Reported Jun 18 10:00 AM — Jul 3 10:30 AM, Perm, Weather by CustomWeather, © 2015

Note: Actual official high and low records may vary slightly from our data, if they occured in-between our weather recording intervals... More about our weather records

Advertising

Perm weather history for previous 24 hours

 ConditionsComfort  
Time TempWeatherWind HumidityBarometerVisibility
10:30 AM
Fri, Jul 3
55 °FSprinkles. Mostly cloudy.8 mph100%29.77 "HgN/A
10:00 AM55 °FRain showers. Mostly cloudy.6 mph100%29.77 "Hg3 mi
9:30 AM55 °FSprinkles. Mostly cloudy.6 mph100%29.77 "HgN/A
8:30 AM55 °FMostly cloudy.8 mph100%29.77 "HgN/A
7:30 AM57 °FPartly sunny.3 mph94%29.77 "HgN/A
7:00 AM55 °FPartly sunny.1 mph94%29.77 "HgN/A
6:30 AM55 °FScattered clouds.3 mph94%29.77 "HgN/A
6:00 AM54 °FClear.1 mph94%29.77 "Hg10 mi
5:30 AM50 °FClear.3 mph94%29.77 "Hg10 mi
5:00 AM48 °FPassing clouds.No wind94%29.77 "HgN/A
4:30 AM48 °FPassing clouds.3 mph94%29.77 "HgN/A
4:00 AM48 °FClear.No wind100%29.77 "Hg6 mi
3:30 AM50 °FClear.3 mph100%29.77 "Hg10 mi
3:00 AM52 °FClear.3 mph94%29.77 "Hg10 mi
2:30 AM54 °FPassing clouds.No wind94%29.77 "HgN/A
2:00 AM52 °FSprinkles. Partly cloudy.6 mph94%29.77 "HgN/A
1:30 AM52 °FClear.3 mph94%29.77 "Hg10 mi
1:00 AM52 °FClear.6 mph94%29.77 "Hg10 mi
12:30 AM52 °FClear.3 mph94%29.77 "Hg10 mi
12:00 AM52 °FSunny.3 mph94%29.77 "Hg10 mi
11:30 PM
Thu, Jul 2
55 °FSunny.3 mph88%29.77 "Hg10 mi
11:00 PM55 °FSunny.3 mph88%29.77 "Hg10 mi
10:30 PM57 °FSunny.3 mph82%29.77 "Hg10 mi
10:00 PM59 °FSunny.3 mph82%29.77 "Hg10 mi
9:30 PM61 °FSunny.3 mph77%29.77 "Hg10 mi
9:00 PM61 °FSunny.3 mph72%29.77 "Hg10 mi
8:30 PM63 °FPassing clouds.6 mph68%29.74 "HgN/A
8:00 PM64 °FPassing clouds.8 mph64%29.74 "HgN/A
7:30 PM64 °FPassing clouds.10 mph64%29.74 "HgN/A
7:00 PM64 °FScattered clouds.10 mph64%29.74 "HgN/A
6:30 PM64 °FPartly sunny.15 mph64%29.74 "HgN/A
6:00 PM64 °FBroken clouds.13 mph64%29.74 "HgN/A
5:30 PM63 °FPartly sunny.15 mph68%29.74 "HgN/A
5:00 PM63 °FPartly sunny.13 mph77%29.71 "HgN/A
4:30 PM61 °FPartly sunny.13 mph83%29.71 "HgN/A
4:00 PM59 °FOvercast.10 mph82%29.71 "HgN/A
3:30 PM59 °FOvercast.10 mph82%29.71 "Hg5 mi
3:00 PM57 °FOvercast.13 mph94%29.71 "Hg4 mi
2:30 PM57 °FOvercast.8 mph94%29.68 "HgN/A
2:00 PM57 °FOvercast.13 mph94%29.68 "HgN/A
1:30 PM59 °FOvercast.13 mph88%29.68 "Hg6 mi
1:00 PM59 °FDrizzle. Fog.10 mph88%29.68 "Hg3 mi
12:30 PM59 °FLight rain. Overcast.13 mph94%29.65 "HgN/A
12:00 PM61 °FOvercast.8 mph88%29.65 "HgN/A
11:30 AM61 °FOvercast.8 mph88%29.65 "HgN/A
11:00 AM61 °FOvercast.6 mph94%29.65 "HgN/A
Weather by CustomWeather, © 2015

See weather overviewHow to use our weather pages